Volver al catálogo

CZ-4C DEB

ActivoPO
NORAD 44614·DEBRIS·🇨🇳 China

Lanzado Nov 14, 2017 desde Taiyuan Satellite Launch Center

Loading…

Próximos Pases (próximas 24 horas)

TLE

ActualizadoSource: Space-Track

Época: Sep 14, 2026, 04:20 UTC

1 44614U 17072E   26257.18094260  .00000296  00000-0  25928-3 0  9994
2 44614  98.7281 340.2436 0228970 150.0627 211.3852 13.80960212443721

Sigue CZ-4C DEB en tiempo real con AllMySat

Download on the App Store